Tracking 23764 objects as of 17-Oct-2021
HD Live streaming from Space Station
objects crossing your sky now

IRIDIUM 33 DEB

Track IRIDIUM 33 DEB now!
10-day predictions


NORAD ID: 38234
Int'l Code: 1997-051ZJ
Perigee: 596.3 km
Apogee: 727.7 km
Inclination: 86.4 °
Period: 97.8 minutes
Semi major axis: 7032 km
RCS: 0.0003 m2 (small)
Launch date: September 14, 1997
Source: United States (US)
Launch site: TYURATAM MISSILE AND SPACE COMPLEX (TTMTR)

Note: This is SATELLITE DEBRIS
aabbcc
Your satellite tracking list
Your tracking list is empty




NASA's NSSDC Master Catalog

Two Line Element Set (TLE):
1 38234U 97051ZJ  21288.88028860  .00012314  00000-0  18284-2 0  9999
2 38234  86.4376 343.5359 0093423 125.5914 235.4054 14.71958410627352
Source of the keplerian elements: AFSPC